{"data":{"norad_id":85439,"epoch":"2026-05-28T09:19:34.640832Z","epoch_age_seconds":9963069,"freshness":"OLD","line1":"1 85439U          26148.38859538  .00146508  00000+0  24405-2 0  9999","line2":"2 85439  51.6241  38.1183 0004517  51.5186 308.6207 15.50981545   242","mean_motion":15.50981545,"eccentricity":0.0004517,"inclination_deg":51.6241,"raan_deg":38.1183,"arg_perigee_deg":51.5186,"mean_anomaly_deg":308.6207,"bstar":0.0024405,"rev_number":24,"period_min":92.84443162088,"perigee_km":410.79105095151,"apogee_km":416.92694013388,"semimajor_km":6791.9959955427,"source":"CELESTRAK","updated_at":"2026-06-27T09:00:31.059030Z"}}